sat.trackr.live / text

‹ back to catalog

KUIPER-00084

NORAD 64830 · 2025-151Q

PAYLOAD ACTIVE UNKNOWN

§ Identity

Operator
Country
US
Launch date
2025-07-16
Launch site
AFETR
Launch vehicle
Mass (kg)
RCS (m²)

External: N2YO · Heavens-Above · Gunter

§ Orbital elements

Epoch: 2026-09-21T20:40:16.718304Z

Period
97.30 min
Inclination
51.9006°
Eccentricity
0.0000861
Mean motion
14.79934304 rev/d
Perigee alt
628.9 km
Apogee alt
630.1 km
Semi-major
7,007.7 km
B*
-1.1601e-4
RAAN
158.1188°
Arg perigee
101.1180°
Mean anomaly
258.9880°
Rev number
6,428

§ Raw data

KUIPER-000841 64830U 25151Q   26264.86130461 -.00001105  00000+0 -11601-3 0  99942 64830  51.9006 158.1188 0000861 101.1180 258.9880 14.79934304 64287

JSON: /api/v1/satellites/64830 · /tle

For live sub-satellite position, see the globe view (requires WebGL).

§ Visibility from observer

Set your observer location to see the next 7 days of passes ≥ 10°. The values pass through the URL so the page stays shareable.

No JS? Fill the form by hand. The geolocation button needs JavaScript.